Regional Weather Roundup
Issued by NWS

Home | Current Version | Previous Version | Graphics & Text | Print | Product List | Glossary Off
Versions: 1 2 3 4 5 6 7 8 9 10 11 12 13 14 15 16 17 18 19 20 21 22 23 24 25 26 27 28 29 30 31 32 33 34 35 36 37 38 39 40 41 42 43 44 45 46 47 48 49 50

000
ASUS43 KDMX 190407
RWRIA

WEATHER ROUNDUP FOR IOWA
NATIONAL WEATHER SERVICE DES MOINES IA
1100 PM CDT THU SEP 18 2014

NOTE: "FAIR" INDICATES FEW OR NO CLOUDS BELOW 12,000 FEET WITH NO
SIGNIFICANT WEATHER AND/OR OBSTRUCTIONS TO VISIBILITY.

* - THESE STATIONS ARE NOT NWS STATIONS...THUS NOT UNDER NWS
QUALITY CONTROL.  THEY ALSO DO NOT REPORT WEATHER SUCH
AS PRECIPITATION OR FOG.

IAZ001>003-012>014-020>022-031>034-043>046-190500-
   NORTHWEST IOWA

CITY           SKY/WX    TMP DP  RH WIND       PRES   REMARKS
CARROLL *      CLEAR     55  54  94 SE6       30.01F
CHEROKEE *     PTCLDY    59  55  88 S9        29.98F
DENISON *      CLEAR     61  57  88 SE10      29.98F
LE MARS *        N/A     61  55  82 S7        29.96R
ORANGE CITY *  CLEAR     63  54  72 SE9       29.96S
SHELDON *      CLEAR     59  54  82 SE13G20   29.95F
SIOUX CITY     PTCLDY    62  55  77 SE10      29.95R
SPENCER        PTCLDY    59  51  75 SE10      29.99S
STORM LAKE *   CLEAR     57  57 100 S12       30.00S
$$

IAZ055>058-069>071-079>083-090>094-190500-
   SOUTHWEST IOWA

CITY           SKY/WX    TMP DP  RH WIND       PRES   REMARKS
ATLANTIC *     CLEAR     59  57  94 SE5       30.01F
AUDUBON *      CLEAR     55  50  82 CALM      30.03F
CLARINDA *     CLEAR     61  57  88 SE5       30.04R
COUNCIL BLFS * CLEAR     59  59 100 SE10      29.98F
CRESTON *      CLEAR     59  57  94 SE8       30.04F
HARLAN  *      CLEAR     59  57  94 SE8       30.04F
LAMONI         CLEAR     60  56  86 SE6       30.05R
SHENANDOAH *     N/A     59  57  94 CALM      30.02S
$$

IAZ047>049-059>061-072>074-084-190500-
   CENTRAL IOWA

CITY           SKY/WX    TMP DP  RH WIND       PRES   REMARKS
AMES           CLEAR     53  51  93 CALM      30.05S
ANKENY *       CLEAR     55  54  94 CALM      30.04F
CHARITON *     CLEAR     57  55  94 SE5       30.06S
DES MOINES     CLEAR     63  56  78 SE9       30.04F
GRINNELL*      CLEAR     54  50  87 E5        30.08R
KNOXVILLE *    CLEAR     59  55  88 SE6       30.05S
MARSHALLTOWN   CLEAR     53  50  89 E7        30.06S
PELLA *        CLEAR     57  54  88 CALM      30.08S
PERRY *          N/A     55  54  95 S6        30.04S
$$

IAZ004>006-015-016-023>025-035-036-190500-
   NORTH CENTRAL IOWA

CITY           SKY/WX    TMP DP  RH WIND       PRES   REMARKS
ALGONA *       CLEAR     59  50  72 S12       30.02S
CLARION *        N/A     57  52  82 SE8       30.03F
ESTHERVILLE    PTCLDY    60  50  69 S16G23    29.99F
FORT DODGE *   CLEAR     61  50  67 S5        30.03F
MASON CITY     CLEAR     57  53  86 S9        30.05F
FOREST CITY *  CLEAR     55  54  94 S6        30.03F
IOWA FALLS *     N/A     57  52  82 SE6       30.06F
$$

IAZ007>011-017>019-026>030-037>042-050>054-066-190500-
   NORTHEAST IOWA

CITY           SKY/WX    TMP DP  RH WIND       PRES   REMARKS
CEDAR RAPIDS   CLEAR     55  51  86 E5        30.08S
CHARLES CITY * CLEAR     57  54  88 SE9       30.06F
CLINTON *      CLEAR     57  52  82 E8        30.14S
DECORAH *      CLEAR     55  54  94 SE8       30.08F
DUBUQUE        CLEAR     57  51  80 SE9       30.12R
MONTICELLO *   CLEAR     57  54  88 SE6       30.10S
OELWEIN *      CLEAR     57  54  88 SE9       30.10S
WATERLOO       CLEAR     58  52  80 SE8       30.07S
$$

IAZ064-065-067-068-078-190500-
   EAST CENTRAL IOWA

CITY           SKY/WX    TMP DP  RH WIND       PRES   REMARKS
DAVENPORT      PTCLDY    55  48  77 E7        30.12R HAZE
IOWA CITY      CLEAR     57  52  83 CALM      30.10R
MT. PLEASANT * CLEAR     55  50  82 E6        30.09R
MUSCATINE *    CLEAR     54  50  87 CALM      30.09S
QUAD CITIES    CLEAR     56  49  77 E6        30.10S
$$

IAZ062-063-075>077-085>089-095>099-190500-
   SOUTHEAST IOWA

CITY           SKY/WX    TMP DP  RH WIND       PRES   REMARKS
BURLINGTON     CLEAR     60  51  72 E6        30.09R
FAIRFIELD *    CLEAR     55  52  88 SE8       30.08S
FORT MADISON * CLEAR     61  52  72 E5        30.10R
KEOKUK *       CLEAR     61  52  72 E10       30.08R
OSKALOOSA *      N/A     57  54  88 SE5       30.07S
CENTERVILLE *  CLEAR     54  54 100 E5        30.08S
OTTUMWA        CLEAR     55  51  86 SE6       30.07S
WASHINGTON *   CLEAR     54  52  94 SE5       30.09R
$$

ABBREVIATIONS USED IN REMARKS
   TC - TEMPERATURES IN CELSIUS
  WCI - WIND CHILL INDEX
   HX - HEAT INDEX
  VSB - VISIBILITY
$$



USA.gov is the U.S. government's official web portal to all federal, state and local government web resources and services.